This is the latest recevied weather packets stored in our database for station/object KB1WCR. If no packets are shown the sender has not sent any weather packets the latest 10 day(s).
| Time | Temp. | Humidity | Pressure | Rain* | Wind** | Luminosity | Snow |
|---|---|---|---|---|---|---|---|
| 1778072389 | 15.56° C | 85% | 1008.8 hPa | 0 mm | - | 215 W/m² | - |
| 1778072087 | 15.56° C | 84% | 1008.5 hPa | 0 mm | - | 149 W/m² | - |
| 1778071784 | 15.56° C | 83% | 1008.7 hPa | 0 mm | - | 137 W/m² | - |
| 1778071482 | 16.11° C | 84% | 1008.6 hPa | 0 mm | - | 148 W/m² | - |
| 1778071180 | 16.11° C | 82% | 1008.7 hPa | 0 mm | - | 402 W/m² | - |
| 1778070877 | 15.56° C | 84% | 1008.7 hPa | 0 mm | - | 308 W/m² | - |
| 1778070575 | 15° C | 85% | 1008.7 hPa | 0 mm | - | 230 W/m² | - |
| 1778070271 | 15° C | 86% | 1008.7 hPa | 0 mm | - | 214 W/m² | - |
| 1778069970 | 14.44° C | 88% | 1008.7 hPa | 0 mm | - | 186 W/m² | - |
| 1778069666 | 14.44° C | 86% | 1008.9 hPa | 0 mm | - | 181 W/m² | - |
| 1778069364 | 13.89° C | 88% | 1008.9 hPa | 0 mm | - | 281 W/m² | - |
| 1778069061 | 13.89° C | 89% | 1008.8 hPa | 0 mm | - | 163 W/m² | - |
| 1778068758 | 13.89° C | 89% | 1009.1 hPa | 0 mm | - | 91 W/m² | - |
| 1778068456 | 13.89° C | 89% | 1008.9 hPa | 0 mm | - | 89 W/m² | - |
| 1778068154 | 13.33° C | 89% | 1009 hPa | 0 mm | - | 131 W/m² | - |
| 1778067851 | 13.33° C | 89% | 1009.1 hPa | 0 mm | - | 142 W/m² | - |
| 1778067550 | 12.78° C | 89% | 1008.9 hPa | 0 mm | - | 117 W/m² | - |
| 1778067247 | 12.78° C | 90% | 1009.1 hPa | 0 mm | - | 112 W/m² | - |
| 1778066944 | 12.78° C | 90% | 1009.4 hPa | 0 mm | - | 95 W/m² | - |
| 1778066641 | 12.78° C | 90% | 1009.5 hPa | 0 mm | - | 79 W/m² | - |
| 1778066338 | 12.22° C | 91% | 1009.3 hPa | 0 mm | - | 89 W/m² | - |
| 1778066036 | 12.22° C | 90% | 1009.2 hPa | 0 mm | - | 91 W/m² | - |
| 1778065733 | 12.22° C | 91% | 1009.7 hPa | 0 mm | - | 77 W/m² | - |
| 1778065431 | 12.22° C | 91% | 1009.5 hPa | 0 mm | - | 108 W/m² | - |
| 1778065127 | 12.22° C | 91% | 1009.5 hPa | 0 mm | - | 102 W/m² | - |
* Rain latest hour (hover to see other rain measurements)
** Current wind speed in m/s (hover to see current wind gust speed)